OpenBCM V1.13 (Linux)

Packet Radio Mailbox

DB0FHN

[JN59NK Nuernberg]

 Login: GUEST





  
LU9DCE > KEP      20.06.19 20:33l 253 Lines 12412 Bytes #-2509 (0) @ WW
BID : 27177_LU9DCE
Read: DJ6UX DF7EAV GUEST
Subj: TLE 20 06
Path: DB0FHN<DB0BLO<DB0ERF<DB0RES<IR2UBX<IW2OHX<UA6ADV<VE2PKT<I0OJJ<LU9DCE
Sent: 190620/1801Z @:LU9DCE.TOR.BA.ARG.SOAM #:27177 LinBPQ6.0.18

>From lu9dce%lu9dce.tor.ba.arg.soam@i0ojj.ampr.org Thu Jun 20 20:02:34 2019
Received: from i0ojj.ampr.org by i0ojj.ampr.org (JNOS2.0k.3b) with SMTP
	id AA14136 ; Thu, 20 Jun 2019 20:02:34 +0200
Message-Id: <27177_lu9dce@lu9dce.bbs>
>From: lu9dce@lu9dce.tor.ba.arg.soam
X-JNOS-User-Port: Circuit  (X-YORK:VE3CGR-8 LU9DCE)  -> Sending message

            __    _  _  ___  ____   ___  ____    ____  ____  ____
           (  )  / )( \/ _ \(    \ / __)(  __)  (  _ \(  _ \/ ___)
           / (_/\) \/ (\__  )) D (( (__  ) _)    ) _ ( ) _ (\___ \
           \____/\____/(___/(____/ \___)(____)  (____/(____/(____/
               ESTACION DE PACKET RADIO - BUENOS AIRES (GF05OM)
                   BOLETINES INFORMATIVOS PROGRAMADOS (BIP)
                  SLACKWARE LINUX - HELLOCODELINUX@GMAIL.COM

+----------------------------------------------------------------------------+
OSCAR 7
1  7530U 74089B   19171.55321894 -.00000035  00000-0  63131-4 0  9996
2  7530 101.7437 139.1949 0012150 345.8765 130.8582 12.53638535 40757
OSCAR 11 (UoSAT 2)
1 14781U 84021B   19171.04952444  .00000047  00000-0  11843-4 0  9999
2 14781  97.6104 195.7041 0007469 324.1021  35.9691 14.83090927898962
OSCAR 19 (LUSAT)
1 20442U 90005G   19171.34499521 -.00000001  00000-0  15999-4 0  9991
2 20442  98.6488 113.3420 0012443 140.0833 220.1267 14.32927300536616
EYESAT A
1 22825U 93061C   19170.89925574 -.00000018  00000-0  10938-4 0  9990
2 22825  98.9029 159.5636 0008438   3.4165 356.7073 14.30060718342128
ITAMSAT
1 22826U 93061D   19171.18044168 -.00000021  00000-0  99905-5 0  9991
2 22826  98.8969 159.8425 0008720 350.9817   9.1207 14.30394289342365
RADIO ROSTO
1 23439U 94085A   19170.93514968 -.00000046 +00000-0 -10428-3 0  9990
2 23439 064.8164 114.1134 0146191 112.9699 248.6722 11.27568063008037
JAS 2
1 24278U 96046B   19170.88052134 -.00000045  00000-0 -76514-5 0  9996
2 24278  98.5372 324.1299 0349430 236.8386 119.8783 13.53091924127967
TECHSAT 1B
1 25397U 98043D   19170.39259830 -.00000023  00000-0  91793-5 0  9997
2 25397  98.6888 110.5281 0002205  59.9048 300.2349 14.23666645 87972
ISS (ZARYA)
1 25544U 98067A   19171.53286072  .00000815  00000-0  21507-4 0  9995
2 25544  51.6445 344.6920 0008218  69.1334   8.0709 15.51213405175778
PCSAT
1 26931U 01043C   19170.89897063 -.00000046 +00000-0 +14186-4 0  9992
2 26931 067.0517 000.5653 0006677 279.0154 081.0191 14.30544925925072
SAUDISAT 1C
1 27607U 02058C   19171.10551007 -.00000047  00000-0  14397-4 0  9995
2 27607  64.5559  45.2747 0081304 256.2597 102.9446 14.75553170887242
CUTE-1
1 27844U 03031E   19170.91935821 +.00000018 +00000-0 +27913-4 0  9993
2 27844 098.6833 179.1146 0010527 034.0402 326.1449 14.22181598828425
CUBESAT XI 4
1 27848U 03031J   19170.91184676 +.00000011 +00000-0 +24941-4 0  9992
2 27848 098.6910 179.6076 0010583 044.6877 315.5151 14.21776238828283
MOZHAYETS 4
1 27939U 03042A   19171.48067207  .00000055  00000-0  18491-4 0  9999
2 27939  98.0413 307.2612 0014120  64.8929 295.3742 14.66785243840802
CUBESAT XI 5
1 28895U 05043F   19171.08071282  .00000074  00000-0  22988-4 0  9995
2 28895  97.9595 313.7640 0016447 352.2848   7.8099 14.63668840727685
CUTE-1.7+APD II
1 32785U 08021C   19170.82842216 +.00000096 +00000-0 +16008-4 0  9991
2 32785 097.5490 170.4892 0011501 257.9258 102.0671 14.88310724603787
DELFI C3
1 32789U 08021G   19171.14529428  .00001101  00000-0  77555-4 0  9990
2 32789  97.4640 220.7672 0013884 117.7785 242.4852 15.06953927607183
SEEDS
1 32791U 08021J   19170.97922807  .00000184  00000-0  24060-4 0  9994
2 32791  97.5274 176.6081 0012069 229.2696 130.7475 14.90821279604304
YUBELEINY
1 32953U 08025A   19171.41525121  .00000021  00000-0  75656-4 0  9993
2 32953  82.4997 143.6926 0020230 122.8363 237.4673 12.43090120502524
PRISM (HITOMI)
1 33493U 09002B   19171.33377572  .00000849  00000-0  79848-4 0  9990
2 33493  98.1226  92.3509 0015147 171.3358 188.8126 14.96655706565397
KKS-1 (KISEKI)
1 33499U 09002H   19170.89546372 +.00000069 +00000-0 +18274-4 0  9992
2 33499 098.3501 009.6418 0008724 194.9988 165.0963 14.75442186558979
SWISSCUBE
1 35932U 09051B   19171.38332117  .00000082  00000-0  29632-4 0  9990
2 35932  98.5880 337.4056 0008227 152.4912 207.6721 14.56285494517021
BEESAT
1 35933U 09051C   19171.45488953  .00000065  00000-0  25614-4 0  9996
2 35933  98.5907 339.2384 0006167 162.0441 198.0975 14.56374549517148
ITUPSAT 1
1 35935U 09051E   19170.75740147  .00000040  00000-0  20411-4 0  9999
2 35935  98.6017 338.7582 0008460 164.4490 195.6968 14.55534356516793
XIWANG-1 (HOPE-1)
1 36122U 09072B   19171.10382162 -.00000027  00000-0  39400-4 0  9994
2 36122 100.0718 173.4172 0007370 348.8468  11.2481 13.16350153457063
TISAT 1
1 36799U 10035E   19171.09151378  .00000249  00000-0  31234-4 0  9998
2 36799  98.1561 323.2900 0013708  82.7870 277.4905 14.91103363484973
JUGNU
1 37839U 11058B   19171.49744406  .00000300  00000-0  18182-4 0  9999
2 37839  19.9625 323.8294 0018974 346.9409  56.8149 14.12652564397513
SRMSAT
1 37841U 11058D   19170.01255941  .00000299  00000-0  18798-4 0  9990
2 37841  19.9737  29.6107 0011920 200.2136 303.3788 14.10633766396730
M-CUBED/EXP-1 PRIME
1 37855U 11061F   19171.19506098  .00000945  00000-0  54998-4 0  9991
2 37855 101.7145  67.5659 0173770  72.3443 289.6659 15.05412135417009
HORYU 2
1 38340U 12025D   19171.06724302  .00000104  00000-0  23197-4 0  9992
2 38340  98.3286 209.6997 0012792 117.2567 242.9946 14.75719656381366
STRAND 1
1 39090U 13009E   19171.25028468 -.00000006  00000-0  13277-4 0  9999
2 39090  98.4882  17.1833 0007973 287.2765  72.7548 14.35087333330611
SOMP
1 39134U 13015E   19171.00461606  .00000538  00000-0  34045-4 0  9998
2 39134  64.8637  16.1853 0030551 302.8280  56.9906 15.20154191340794
BEESAT 3
1 39135U 13015F   19170.92911349 +.00000526 +00000-0 +35965-4 0  9992
2 39135 064.8694 034.7438 0021137 322.3182 037.6462 15.17463626340044
BEESAT 2
1 39136U 13015G   19171.03250802  .00000505  00000-0  35442-4 0  9993
2 39136  64.8701  38.2371 0019296 300.9687  58.9542 15.16891411340371
CUBEBUG 1
1 39153U 13018D   19171.52032761  .00000101  00000-0  20131-4 0  9992
2 39153  97.9786 269.6349 0016800 187.8247 172.2705 14.80566931332083
ZACUBE
1 39417U 13066B   19170.92110162 +.00000113 +00000-0 +20624-4 0  9993
2 39417 097.5620 184.3537 0059788 031.3939 329.0821 14.81114651301226
TRITON 1
1 39427U 13066M   19171.02335003  .00000126  00000-0  27939-4 0  9999
2 39427  97.6759 148.3192 0114255 160.4809 200.0826 14.67840083298530
GOMX 1
1 39430U 13066Q   19171.40525003  .00000094  00000-0  26492-4 0  9993
2 39430  97.7461 127.8441 0149724 248.7402 109.7767 14.59252325296851
HUMSAT D
1 39433U 13066T   19171.08899849  .00000332  00000-0  37726-4 0  9999
2 39433  97.5533 218.5380 0029278 297.4068  62.4174 14.92190196303289
CUBEBUG 2
1 39440U 13066AA  19170.90379176 +.00000106 +00000-0 +21585-4 0  9998
2 39440 097.6017 169.2691 0081882 081.2207 279.8266 14.75852753298953
FUNCUBE 1
1 39444U 13066AE  19170.98850574  .00000141  00000-0  23627-4 0  9994
2 39444  97.5602 186.3642 0058762  25.1504 335.2552 14.81933049300123
UWE-3
1 39446U 13066AG  19170.97349961  .00000114  00000-0  21768-4 0  9992
2 39446  97.5808 176.3579 0071396  56.6589 304.1431 14.78387305299459
SPROUT
1 39770U 14029E   19171.51524364  .00000221  00000-0  30560-4 0  9994
2 39770  97.8852 274.7966 0010483  80.0133 280.2266 14.87336570275104
UNISAT 6
1 40012U 14033C   19171.50868393  .00000107  00000-0  23308-4 0  9997
2 40012  97.7574  38.0425 0059844  91.8988 268.9076 14.73977189268957
DUCHIFAT 1
1 40021U 14033M   19171.08798486  .00000214  00000-0  27714-4 0  9999
2 40021  97.9241  95.6862 0014155  49.6368 310.6083 14.90626433271750
QB50P1
1 40025U 14033R   19170.57387499 +.00000160 +00000-0 +22993-4 0  9998
2 40025 097.9063 090.2567 0013837 059.8661 300.3925 14.88941332270940
CHUBUSAT 1
1 40300U 14070C   19171.16584116  .00000395  00000-0  20171-4 0  9992
2 40300  97.3275 245.3129 0021309  51.5952   2.3427 15.22082415256247
NUDT-PHONESAT
1 40900U 15049B   19171.55396221  .00001159  00000-0  52584-4 0  9998
2 40900  97.4360 180.8704 0013012 170.5556 308.9067 15.22771534207940
ZDPS 2A
1 40901U 15049C   19171.39357604  .00000557  00000-0  30908-4 0  9990
2 40901  97.4587 177.1930 0013112 189.6102 276.2543 15.17718629207497
ZDPS 2B
1 40902U 15049D   19171.55290223  .00000660  00000-0  36212-4 0  9991
2 40902  97.4535 174.8615 0013064 186.4695 290.0272 15.17531348207497
XW-2A
1 40903U 15049E   19171.40254053  .00001192  00000-0  30059-4 0  9991
2 40903  97.3373 214.1765 0014933 133.8027 325.1516 15.41836332210518
KAITUO 1A
1 40904U 15049F   19171.58664998  .00000202  00000-0  14197-4 0  9990
2 40904  97.4656 173.5626 0014028 194.7701 282.2117 15.15359537207286
OBJECT G
1 40905U 15049G   19171.53580429  .00000489  00000-0  30228-4 0  9992
2 40905  97.4698 171.0678 0014912 190.5250 284.4689 15.14289432207157
XW-2C
1 40906U 15049H   19171.38720574  .00000361  00000-0  22444-4 0  9993
2 40906  97.4664 173.4371 0014450 186.7189 279.2204 15.15668269207258
XW-2D
1 40907U 15049J   19171.43626566  .00000153  00000-0  11445-4 0  9994
2 40907  97.4637 173.1634 0014087 183.5086 313.1632 15.15853206207277
LILACSAT 2
1 40908U 15049K   19171.51557300  .00000029  00000-0  52275-5 0  9992
2 40908  97.4773 172.0982 0015413 190.5676 287.2573 15.13796791207087
XW-2F
1 40910U 15049M   19171.39098604  .00000644  00000-0  35629-4 0  9994
2 40910  97.4612 175.0970 0014774 176.9080 289.0930 15.17284196207271
XW-2B
1 40911U 15049N   19171.39772602  .00000563  00000-0  32919-4 0  9991
2 40911  97.4664 173.7732 0013619 184.2977 283.6573 15.15786978207168
